Flag for Germany Weather past 2 weeks in Dinslaken, North Rhine-Westphalia, Germany

Now
43 °F

Light rain. Low clouds.


Feels Like: 39 °F
Forecast: 38 / 47 °F
Wind: 6 mph from Southwest

Location: Essen

Current Time: Apr 2, 2015 at 12:10:21 AM

Latest Report: Apr 1, 2015 at 11:00 PM


Visibility: 28 mi

Pressure: 30.02 "Hg

Humidity: 73%

Dew point: 35 °F

Location of DinslakenLocation

Historic Weather in Dinslaken — Graph

°F

Dinslaken temperature yesterday

Maximum temperature yesterday: 45 °F (at 6:00 PM)
Minimum temperature yesterday: 35 °F (at 7:00 AM)
Average temperature yesterday: 40 °F

Past Weeks' High & Low Weather Summary

 TemperatureHumidityPressure
High61 °F (Mar 18, 2:00 PM)100% (Mar 19, 12:00 AM)30.39 "Hg (Mar 19, 12:00 AM)
Low34 °F (Mar 23, 4:00 AM)48% (Mar 31, 5:00 PM)29.23 "Hg (Mar 29, 8:00 PM)
Average43 °F82%29.95 "Hg
* Reported Mar 17 9:00 PM — Apr 1 10:00 PM, Dinslaken, Weather by CustomWeather, © 2015

Note: Actual official high and low records may vary slightly from our data, if they occured in-between our weather recording intervals... More about our weather records

Advertising

Dinslaken weather history for previous 24 hours

 ConditionsComfort  
Time TempWeatherWind HumidityBarometerVisibility
10:00 PM
Wed, Apr 1
44 °FOvercast.7 mph66%30.04 "Hg25 mi
9:00 PM43 °FOvercast.5 mph66%30.06 "Hg28 mi
8:00 PM44 °FOvercast.6 mph59%30.06 "Hg31 mi
7:00 PM44 °FOvercast.6 mph58%30.07 "Hg31 mi
6:00 PM45 °FOvercast.5 mph64%30.06 "Hg25 mi
5:00 PM44 °FLight rain. Overcast.5 mph67%30.05 "Hg22 mi
4:00 PM40 °FLow clouds.5 mph88%30.06 "Hg14 mi
3:00 PM37 °FHail. Low clouds.6 mph93%30.07 "Hg1 mi
2:00 PM40 °FLow clouds.6 mph89%30.05 "Hg14 mi
1:00 PM40 °FLow clouds.8 mph83%30.05 "Hg22 mi
12:00 PM42 °FOvercast.5 mph81%30.04 "Hg19 mi
11:00 AM40 °FOvercast.6 mph83%30.03 "Hg18 mi
10:00 AM40 °FOvercast.6 mph83%30.01 "Hg19 mi
9:00 AM38 °FOvercast.5 mph88%29.99 "Hg16 mi
8:00 AM36 °FOvercast.5 mph94%29.96 "Hg14 mi
7:00 AM35 °FLow clouds.5 mph97%29.93 "Hg16 mi
6:00 AM40 °FOvercast.7 mph67%29.88 "Hg22 mi
5:00 AM40 °FOvercast.7 mph68%29.86 "Hg28 mi
4:00 AM40 °FOvercast.7 mph65%29.85 "Hg25 mi
3:00 AM40 °FOvercast.6 mph71%29.85 "Hg25 mi
2:00 AM39 °FPassing clouds.6 mph75%29.83 "Hg25 mi
1:00 AM39 °FPassing clouds.6 mph78%29.82 "Hg28 mi
12:00 AM39 °FClear.6 mph78%29.81 "Hg28 mi
Weather by CustomWeather, © 2015

See weather overviewHow to use our weather pages